Location: Krakow
(50.0212°N, 19.9423°E)
Time: 02:06:41
(UTC+02:00)

UWE-3 - Pass Details

Date: 25 April 2024
Orbit: 569 x 652 km, 97.8° (Epoch: 23 May)

Event Time Altitude Azimuth Distance (km) Brightness Sun altitude
Rises 02:04:25 0° 29° (NNE) 2,863 ? -23.9°
Reaches altitude 10° 02:07:23 10° 52° (NE) 1,972 ? -23.7°
Maximum altitude 02:10:00 16° 90° (E) 1,637 ? -23.6°
Enters shadow 02:12:06 12° 121° (ESE) 1,870 ? -23.4°
